Regional Weather Roundup
Issued by NWS

Home | Current Version | Previous Version | Text Only | Print | Product List | Glossary On
Versions: 1 2 3 4 5 6 7 8 9 10 11 12 13 14 15 16 17 18 19 20 21 22 23 24 25 26 27 28 29 30 31 32 33 34 35 36 37 38 39 40 41 42 43 44 45 46 47 48 49 50
000
ASUS43 KOAX 050210
RWRNE

WEATHER ROUNDUP FOR NEBRASKA
NATIONAL WEATHER SERVICE OMAHA NE
900 PM CDT FRI SEP 04 2015

NOTES: SATELLITE DATA IS BEING USED TO AUGMENT CLOUD COVER ABOVE
       12000 FEET.
       "FAIR" INDICATES FEW OR NO CLOUDS BELOW 12,000 FEET WITH NO
       SIGNIFICANT WEATHER AND/OR OBSTRUCTIONS TO VISIBILITY.

  * THESE STATIONS DO NOT REPORT WEATHER SUCH AS RAIN...SNOW OR FOG.

NEZ001>004-019>022-054>056-050300-
NEBRASKA PANHANDLE

CITY           SKY/WX    TMP DP  RH WIND       PRES   REMARKS
SCOTTSBLUFF    CLOUDY    79  51  37 E8        29.85S
ALLIANCE       MOCLDY    73  46  38 E8        29.86S
CHADRON        MOCLDY    76  49  38 SE7       29.80S
KIMBALL        CLOUDY    73  44  34 SE5       29.92R
SIDNEY         PTCLDY    77  45  32 SE8       29.90S
$$

NEZ057>060-069>072-079>082-050300-
SOUTHWEST NEBRASKA

CITY           SKY/WX    TMP DP  RH WIND       PRES   REMARKS
NORTH PLATTE   MOCLDY    73  62  68 E5        29.84R
IMPERIAL       MOCLDY    75  56  51 E9        29.85R
LEXINGTON      CLEAR     78  67  69 E6        29.82S
MCCOOK         PTCLDY    87  55  33 S13       29.81R
OGALLALA       MOCLDY    78  56  46 E5        29.85S
$$

NEZ005>010-023>029-035>040-094-050300-
NORTH CENTRAL NEBRASKA

CITY           SKY/WX    TMP DP  RH WIND       PRES   REMARKS
VALENTINE      MOCLDY    83  63  50 SE10      29.80S
AINSWORTH      PTCLDY    78  64  63 S7        29.83R
BROKEN BOW     PTCLDY    73  68  84 N3        29.83R
O`NEILL        PTCLDY    81  71  70 SE9       29.83R
ORD            PTCLDY    78  67  68 CALM      29.81R
THEDFORD       CLEAR     79  64  59 SE8       29.85S
$$

NEZ041-046>049-061>064-073>077-083>087-050300-
SOUTH CENTRAL NEBRASKA

CITY           SKY/WX    TMP DP  RH WIND       PRES   REMARKS
GRAND ISLAND   CLEAR     82  67  60 SE14G22   29.84R
AURORA         CLEAR     80  67  63 SE12      29.85R
HASTINGS       CLEAR     84  66  54 MISG      29.84R
HEBRON         CLEAR     82  63  52 S10       29.87R
HOLDREGE       CLEAR     81  60  50 SE10      29.83R
KEARNEY *      PTCLDY    81  63  54 SE12      29.83R
YORK           CLEAR     81  66  61 S14       29.86R
$$

NEZ011>018-030>034-042>045-050300-
NORTHEAST NEBRASKA

CITY           SKY/WX    TMP DP  RH WIND       PRES   REMARKS
NORFOLK        CLEAR     79  70  74 SE10      29.84R
ALBION         CLEAR     78  68  71 SE7       29.84R
BLAIR          PTCLDY    82  66  58 SE14G20   29.89R
COLUMBUS *     CLEAR     81  64  57 SE9       29.85R
FREMONT        CLEAR     81  67  61 SE9       29.87S
TEKAMAH        CLEAR     79  70  74 SE10      29.87R
WAYNE          CLEAR     79  71  78 SE12      29.85S
$$

NEZ050>053-065>068-078-088>093-050300-
SOUTHEAST NEBRASKA

CITY           SKY/WX    TMP DP  RH WIND       PRES   REMARKS
LINCOLN        CLEAR     82  66  58 SE9       29.88R
OMAHA EPPLEY   MOCLDY    83  68  60 SE15      29.89R
BEATRICE       CLEAR     82  67  59 SE10      29.88S
FALLS CITY     CLEAR     76  67  73 SE7       29.92R
NEBRASKA CITY  CLEAR     78  63  59 S10       29.92R
PLATTSMOUTH    CLEAR     79  65  64 SE7       29.91R
$$

NEZ044-045-051>053-067-050300-
OMAHA AREA

CITY           SKY/WX    TMP DP  RH WIND       PRES   REMARKS
OMAHA EPPLEY   MOCLDY    83  68  60 SE15      29.89R
BLAIR          PTCLDY    82  66  58 SE14G20   29.89R
FREMONT        CLEAR     81  67  61 SE9       29.87S
MILLARD        CLEAR     81  69  68 SE8       29.89R
OFFUTT AFB     PTCLDY    78  69  72 SE8       29.89R
PLATTSMOUTH    CLEAR     79  65  64 SE7       29.91R
WAHOO          FAIR      76  70  82 SE8       29.87R
$$




USA.gov is the U.S. government's official web portal to all federal, state and local government web resources and services.